When you browse on this site, cookies collect data to enhance your experience and personalize the content and advertising you see.
Visit our Privacy Policy to learn more. By continuing to use the site, you agree to this use of cookies and data.
  • In Portugal
  • List of Countries
  • For 7 days
  • Water Temperature
  • Satellite Maps
  • Weather Map
  • Weather Widgets
  • user-avatar
    Login

    Hourly Weather Chernyy Klyuch

    Today, 22 July, Monday

    Time Temperature Precipitation Wind Pressure Humidity
    00:00 +16°C° 0 mm 2 mps 742 mmHg 95%
    01:00 +15°C° 0 mm 2 mps 742 mmHg 96%
    02:00 +15°C° 0 mm 2 mps 742 mmHg 96%
    03:00 +15°C° 0 mm 2 mps 742 mmHg 96%
    04:00 +15°C° 0 mm 2 mps 742 mmHg 95%
    05:00 +16°C° 0 mm 2 mps 742 mmHg 94%
    06:00 +17°C° 0 mm 2 mps 742 mmHg 93%
    07:00 +18°C° 0 mm 3 mps 742 mmHg 88%
    08:00 +19°C° 0 mm 3 mps 742 mmHg 82%
    09:00 +20°C° 0 mm 4 mps 742 mmHg 77%
    10:00 +21°C° 0.2 mm 4 mps 741 mmHg 74%
    11:00 +22°C° 0.2 mm 4 mps 741 mmHg 71%
    12:00 +22°C° 0.2 mm 4 mps 741 mmHg 67%
    13:00 +22°C° 0.5 mm 4 mps 741 mmHg 69%
    14:00 +22°C° 0.5 mm 4 mps 741 mmHg 70%
    15:00 +22°C° 0.5 mm 4 mps 741 mmHg 71%
    16:00 +21°C° 0.3 mm 4 mps 741 mmHg 75%
    17:00 +20°C° 0.3 mm 4 mps 740 mmHg 78%
    18:00 +19°C° 0.3 mm 4 mps 740 mmHg 82%
    19:00 +18°C° 0 mm 3 mps 740 mmHg 86%
    20:00 +16°C° 0 mm 3 mps 740 mmHg 90%
    21:00 +14°C° 0 mm 3 mps 740 mmHg 94%
    22:00 +14°C° 0 mm 3 mps 740 mmHg 95%
    23:00 +13°C° 0 mm 3 mps 740 mmHg 96%

    Tomorrow, 23 July, Tuesday

    Time Temperature Precipitation Wind Pressure Humidity
    00:00 +13°C° 0 mm 3 mps 740 mmHg 96%
    01:00 +13°C° 0 mm 3 mps 740 mmHg 96%
    02:00 +13°C° 0 mm 3 mps 740 mmHg 97%
    03:00 +12°C° 0 mm 3 mps 740 mmHg 97%
    04:00 +13°C° 0 mm 3 mps 740 mmHg 95%
    05:00 +14°C° 0 mm 3 mps 740 mmHg 93%
    06:00 +15°C° 0 mm 4 mps 741 mmHg 91%
    07:00 +17°C° 0 mm 4 mps 741 mmHg 87%
    08:00 +18°C° 0 mm 4 mps 741 mmHg 82%
    09:00 +20°C° 0 mm 5 mps 741 mmHg 78%
    10:00 +20°C° 0.1 mm 5 mps 741 mmHg 76%
    11:00 +21°C° 0.1 mm 5 mps 741 mmHg 73%
    12:00 +22°C° 0.1 mm 6 mps 742 mmHg 71%
    13:00 +22°C° 0.1 mm 5 mps 742 mmHg 71%
    14:00 +22°C° 0.1 mm 5 mps 741 mmHg 71%
    15:00 +22°C° 0.1 mm 5 mps 741 mmHg 71%
    16:00 +21°C° 0 mm 4 mps 742 mmHg 75%
    17:00 +21°C° 0 mm 3 mps 742 mmHg 78%
    18:00 +20°C° 0 mm 3 mps 742 mmHg 82%
    19:00 +19°C° 0 mm 2 mps 742 mmHg 85%
    20:00 +18°C° 0 mm 2 mps 742 mmHg 89%
    21:00 +16°C° 0 mm 2 mps 742 mmHg 92%
    22:00 +16°C° 0 mm 1 mps 742 mmHg 92%
    23:00 +16°C° 0 mm 1 mps 742 mmHg 93%

    Day after tomorrow, 24 July, Wednesday

    Time Temperature Precipitation Wind Pressure Humidity
    00:00 +15°C° 0 mm 1 mps 742 mmHg 93%
    01:00 +15°C° 0 mm 1 mps 742 mmHg 93%
    02:00 +15°C° 0 mm 1 mps 743 mmHg 94%
    03:00 +15°C° 0 mm 1 mps 743 mmHg 94%
    04:00 +16°C° 0 mm 1 mps 743 mmHg 93%
    05:00 +18°C° 0 mm 1 mps 743 mmHg 91%
    06:00 +19°C° 0 mm 1 mps 743 mmHg 89%
    07:00 +20°C° 0 mm 1 mps 743 mmHg 84%
    08:00 +21°C° 0 mm 2 mps 744 mmHg 78%
    09:00 +23°C° 0 mm 2 mps 744 mmHg 73%
    10:00 +24°C° 0 mm 2 mps 744 mmHg 68%
    11:00 +25°C° 0 mm 1 mps 744 mmHg 64%
    12:00 +26°C° 0 mm 1 mps 744 mmHg 60%
    13:00 +26°C° 0 mm 1 mps 744 mmHg 59%
    14:00 +26°C° 0 mm 1 mps 744 mmHg 59%
    15:00 +26°C° 0 mm 1 mps 744 mmHg 58%
    16:00 +26°C° 0.1 mm 1 mps 744 mmHg 63%
    17:00 +25°C° 0.1 mm 1 mps 744 mmHg 68%
    18:00 +24°C° 0.1 mm 1 mps 744 mmHg 74%
    19:00 +23°C° 0 mm 1 mps 744 mmHg 77%
    20:00 +21°C° 0 mm 1 mps 744 mmHg 81%
    21:00 +20°C° 0 mm 1 mps 744 mmHg 85%
    22:00 +19°C° 0 mm 1 mps 744 mmHg 86%
    23:00 +19°C° 0 mm 1 mps 744 mmHg 86%

    25 July, Thursday

    Time Temperature Precipitation Wind Pressure Humidity
    00:00 +17°C° 0 mm 0 mps 745 mmHg 86%
    01:00 +16°C° 0 mm 0 mps 744 mmHg 87%
    02:00 +16°C° 0 mm 0 mps 744 mmHg 87%
    03:00 +16°C° 0 mm 0 mps 744 mmHg 87%
    04:00 +17°C° 0 mm 0 mps 744 mmHg 86%
    05:00 +20°C° 0 mm 1 mps 745 mmHg 84%
    06:00 +21°C° 0 mm 1 mps 745 mmHg 82%
    07:00 +22°C° 0 mm 1 mps 745 mmHg 78%
    08:00 +23°C° 0 mm 1 mps 745 mmHg 73%
    09:00 +24°C° 0 mm 1 mps 745 mmHg 69%
    10:00 +25°C° 0 mm 2 mps 745 mmHg 66%
    11:00 +26°C° 0 mm 2 mps 745 mmHg 64%
    12:00 +27°C° 0 mm 2 mps 745 mmHg 61%
    13:00 +27°C° 0 mm 2 mps 744 mmHg 61%
    14:00 +27°C° 0 mm 2 mps 744 mmHg 61%
    15:00 +27°C° 0 mm 2 mps 744 mmHg 61%
    16:00 +26°C° 0.1 mm 2 mps 744 mmHg 66%
    17:00 +26°C° 0.1 mm 2 mps 743 mmHg 71%
    18:00 +25°C° 0.1 mm 2 mps 743 mmHg 76%
    19:00 +24°C° 0 mm 1 mps 743 mmHg 79%
    20:00 +22°C° 0 mm 1 mps 743 mmHg 82%
    21:00 +21°C° 0 mm 1 mps 743 mmHg 85%
    22:00 +20°C° 0 mm 1 mps 743 mmHg 86%
    23:00 +20°C° 0 mm 1 mps 743 mmHg 87%

    26 July, Friday

    Time Temperature Precipitation Wind Pressure Humidity
    00:00 +19°C° 0 mm 1 mps 743 mmHg 87%
    01:00 +19°C° 0 mm 1 mps 742 mmHg 88%
    02:00 +19°C° 0 mm 1 mps 742 mmHg 89%
    03:00 +18°C° 0 mm 1 mps 742 mmHg 89%
    04:00 +19°C° 0 mm 1 mps 742 mmHg 87%
    05:00 +20°C° 0 mm 1 mps 742 mmHg 85%
    06:00 +21°C° 0 mm 1 mps 742 mmHg 83%
    07:00 +22°C° 0.3 mm 1 mps 742 mmHg 79%
    08:00 +24°C° 0.3 mm 1 mps 741 mmHg 75%
    09:00 +25°C° 0.3 mm 1 mps 741 mmHg 71%
    10:00 +25°C° 0.8 mm 2 mps 741 mmHg 71%
    11:00 +25°C° 0.8 mm 2 mps 741 mmHg 72%
    12:00 +25°C° 0.8 mm 3 mps 741 mmHg 72%
    13:00 +25°C° 0.6 mm 2 mps 740 mmHg 71%
    14:00 +25°C° 0.6 mm 2 mps 740 mmHg 71%
    15:00 +25°C° 0.6 mm 1 mps 739 mmHg 70%
    16:00 +24°C° 0.1 mm 1 mps 739 mmHg 74%
    17:00 +24°C° 0.1 mm 1 mps 739 mmHg 77%
    18:00 +23°C° 0.1 mm 1 mps 739 mmHg 80%
    19:00 +22°C° 0.3 mm 1 mps 738 mmHg 82%
    20:00 +21°C° 0.3 mm 1 mps 738 mmHg 84%
    21:00 +19°C° 0.3 mm 1 mps 738 mmHg 87%
    22:00 +19°C° 0 mm 1 mps 738 mmHg 88%
    23:00 +18°C° 0 mm 1 mps 737 mmHg 89%

    27 July, Saturday

    Time Temperature Precipitation Wind Pressure Humidity
    00:00 +17°C° 0 mm 2 mps 737 mmHg 90%
    01:00 +16°C° 0 mm 1 mps 737 mmHg 89%
    02:00 +16°C° 0 mm 1 mps 737 mmHg 89%
    03:00 +16°C° 0 mm 1 mps 737 mmHg 89%
    04:00 +18°C° 0 mm 1 mps 736 mmHg 87%
    05:00 +19°C° 0 mm 1 mps 736 mmHg 85%
    06:00 +19°C° 0 mm 1 mps 736 mmHg 83%
    07:00 +21°C° 0.3 mm 1 mps 736 mmHg 78%
    08:00 +22°C° 0.3 mm 1 mps 736 mmHg 74%
    09:00 +23°C° 0.3 mm 2 mps 735 mmHg 69%
    10:00 +24°C° 0.2 mm 2 mps 735 mmHg 67%
    11:00 +24°C° 0.2 mm 2 mps 735 mmHg 64%
    12:00 +25°C° 0.2 mm 3 mps 735 mmHg 61%
    13:00 +24°C° 0.9 mm 3 mps 735 mmHg 65%
    14:00 +24°C° 0.9 mm 3 mps 734 mmHg 69%
    15:00 +22°C° 0.9 mm 4 mps 734 mmHg 73%
    16:00 +21°C° 0.3 mm 4 mps 734 mmHg 76%
    17:00 +21°C° 0.3 mm 4 mps 733 mmHg 80%
    18:00 +20°C° 0.3 mm 4 mps 733 mmHg 84%
    19:00 +19°C° 0 mm 4 mps 733 mmHg 88%
    20:00 +17°C° 0 mm 3 mps 733 mmHg 91%
    21:00 +16°C° 0 mm 3 mps 733 mmHg 95%
    22:00 +14°C° 0 mm 3 mps 732 mmHg 96%
    23:00 +14°C° 0 mm 3 mps 732 mmHg 96%
    Show more